Jefferson City, MO

7:36 AM CST on December 04, 2016 (GMT -0600)
Jefferson City Memorial

Weather History for KJEF - July, 2013

Change the Weather History Date:

Sunday, July 21, 2013

  Actual Average Record
Temperature  
Mean Temperature 76 °F -  
Max Temperature 82 °F 91 °F 108 °F (1934)
Min Temperature 71 °F 66 °F 47 °F (1970)
Cooling Degree Days 12    
Growing Degree Days 26 (Base 50)    
Moisture  
Dew Point 69 °F    
Average Humidity 79    
Maximum Humidity 94    
Minimum Humidity 58    
Precipitation  
Precipitation 0.46 in - - ()
Sea Level Pressure  
Sea Level Pressure 29.86 in    
Wind  
Wind Speed 5 mph (ESE)    
Max Wind Speed 17 mph    
Max Gust Speed 23 mph    
Visibility 8 miles    
Events Rain , Thunderstorm    
Averages and records for this station are not official NWS values.
T = Trace of Precipitation, MM = Missing Value Source: NWS Daily Summary

Daily Weather History Graph

Daily Weather History Graph

Search for Another Location

Airport or City:

Trip Planner

Search our weather history database for the weather conditions in past years. The results will help you decide how hot, cold, wet, or windy it might be!

Date:

Astronomy

Jul. 21, 2013 Rise Set
Actual Time 6:01 AM CDT 8:28 PM CDT
Civil Twilight 5:30 AM CDT 8:58 PM CDT
Nautical Twilight 4:53 AM CDT 9:36 PM CDT
Astronomical Twilight 4:11 AM CDT 10:17 PM CDT
Moon 7:27 PM CDT (7/21) 4:47 AM CDT (7/21)
Length of Visible Light 15h 27m
Length of Day
14h 27m
Waxing Gibbous, 98% of the Moon is Illuminated
Jul 21
Waxing Gibbous
Jul 22
Full
Jul 29
Last Quarter
Aug 6
New
Aug 14
First Quarter

Hourly Weather History & Observations

Time (CDT) Temp. Heat Index Dew Point Humidity Pressure Visibility Wind Dir Wind Speed Gust Speed Precip Events Conditions
12:53 AM 73.0 °F - 66.0 °F 79% 29.89 in 10.0 mi Variable 3.5 mph - 0.00 in Rain Light Rain
1:53 AM 72.0 °F - 66.9 °F 84% 29.86 in 10.0 mi South 5.8 mph - 0.00 in   Clear
2:53 AM 72.0 °F - 68.0 °F 87% 29.86 in 10.0 mi East 4.6 mph - N/A   Clear
3:53 AM 72.0 °F - 68.0 °F 87% 29.86 in 10.0 mi East 3.5 mph - N/A   Clear
4:53 AM 73.0 °F - 66.9 °F 81% 29.86 in 10.0 mi Calm Calm - N/A   Clear
5:53 AM 71.1 °F - 68.0 °F 90% 29.87 in 10.0 mi ESE 3.5 mph - N/A   Mostly Cloudy
6:53 AM 72.0 °F - 68.0 °F 87% 29.88 in 10.0 mi ESE 5.8 mph - N/A   Clear
7:53 AM 72.0 °F - 69.1 °F 91% 29.89 in 10.0 mi SE 5.8 mph - N/A   Mostly Cloudy
8:53 AM 73.0 °F - 69.1 °F 87% 29.90 in 10.0 mi SE 3.5 mph - N/A   Scattered Clouds
9:53 AM 73.9 °F - 69.1 °F 85% 29.90 in 10.0 mi Calm Calm - N/A   Clear
10:53 AM 75.9 °F - 68.0 °F 76% 29.91 in 10.0 mi WSW 4.6 mph - 0.00 in Rain Light Rain
11:53 AM 77.0 °F - 68.0 °F 74% 29.91 in 10.0 mi SW 5.8 mph - N/A   Clear
12:53 PM 78.1 °F - 68.0 °F 71% 29.88 in 10.0 mi SSE 4.6 mph - N/A   Partly Cloudy
1:53 PM 80.1 °F 82.7 °F 68.0 °F 67% 29.86 in 10.0 mi ENE 3.5 mph - N/A   Partly Cloudy
2:53 PM 82.0 °F 84.9 °F 68.0 °F 62% 29.84 in 10.0 mi SSE 4.6 mph - N/A   Mostly Cloudy
3:53 PM 82.0 °F 84.1 °F 66.0 °F 58% 29.82 in 10.0 mi SSE 6.9 mph - N/A   Partly Cloudy
4:22 PM 82.4 °F 84.6 °F 66.2 °F 58% 29.86 in 1.8 mi SSE 8.1 mph - N/A   Haze
4:30 PM 82.4 °F 84.6 °F 66.2 °F 58% 29.86 in 10.0 mi SSE 8.1 mph - N/A   Mostly Cloudy
4:53 PM 82.0 °F 84.1 °F 66.0 °F 58% 29.82 in 10.0 mi SSE 9.2 mph - N/A   Mostly Cloudy
5:53 PM 82.0 °F 84.5 °F 66.9 °F 60% 29.80 in 10.0 mi SSE 5.8 mph - N/A   Mostly Cloudy
6:34 PM 82.4 °F 85.4 °F 68.0 °F 62% 29.84 in 2.5 mi ENE 3.5 mph - N/A   Haze
6:43 PM 80.6 °F 83.9 °F 69.8 °F 70% 29.84 in 10.0 mi Calm Calm - N/A   Partly Cloudy
6:53 PM 81.0 °F 84.1 °F 69.1 °F 67% 29.80 in 10.0 mi Calm Calm - N/A   Scattered Clouds
7:15 PM 78.8 °F - 69.8 °F 74% 29.84 in 10.0 mi NNE 12.7 mph 19.6 mph N/A Thunderstorm Overcast
7:27 PM 75.2 °F - 69.8 °F 83% 29.87 in 2.5 mi WNW 17.3 mph 23.0 mph 0.00 in Rain Light Rain
7:30 PM 73.4 °F - 69.8 °F 88% 29.88 in 0.8 mi WNW 12.7 mph 23.0 mph 0.01 in Rain Heavy Rain
7:38 PM 73.4 °F - 71.6 °F 94% 29.87 in 2.0 mi NNE 5.8 mph - 0.01 in Rain Heavy Rain
7:51 PM 73.4 °F - 69.8 °F 88% 29.85 in 3.0 mi North 12.7 mph - 0.01 in Rain Light Rain
7:53 PM 73.0 °F - 70.0 °F 90% 29.81 in 3.0 mi North 11.5 mph - 0.01 in Rain Rain
7:58 PM 73.4 °F - 69.8 °F 88% 29.85 in 2.0 mi North 13.8 mph - 0.00 in Rain Heavy Rain
8:08 PM 73.4 °F - 69.8 °F 88% 29.87 in 2.0 mi NNW 6.9 mph - N/A Rain , Thunderstorm Heavy Thunderstorms and Rain
8:23 PM 71.6 °F - 69.8 °F 94% 29.85 in 5.0 mi ESE 4.6 mph - N/A Rain , Thunderstorm Heavy Thunderstorms and Rain
8:34 PM 73.4 °F - 69.8 °F 88% 29.86 in 5.0 mi NNE 3.5 mph - N/A Rain Light Rain
8:53 PM 73.0 °F - 69.1 °F 87% 29.82 in 10.0 mi Calm Calm - N/A   Overcast
9:53 PM 72.0 °F - 70.0 °F 93% 29.83 in 10.0 mi ESE 4.6 mph - 0.17 in   Clear
10:53 PM 72.0 °F - 69.1 °F 91% 29.84 in 10.0 mi Calm Calm - 0.13 in   Clear
11:53 PM 71.1 °F - 69.1 °F 93% 29.83 in 10.0 mi Calm Calm - 0.15 in   Clear